Find Starlink 34638

NORAD ID: 64762 Int'l Des: 2025-147 Owner: SPXS Country: US Constellation: starlink operational
LEOCIRCULAR

Current View

Loading 3D Globe...

About Starlink 34638

Description loading...

Upcoming Passes

Passes for default location (London). Set your location on the main map for personalized predictions.

Altitude History

Loading altitude history...

Two-Line Element Set

1 64762U 25147H 26150.19296405 .00066471 00000-0 19605-2 0 9991
2 64762 53.1605 223.2298 0001625 101.7602 258.3583 15.34409072 51247
Epoch: May 30, 2026 • Age: 9 hours

Current Status

Altitude 482.1 km
Velocity 7.62 km/s
Sub-Earth Point -53.31°S, 40.33°E
Launch Date Jul 8, 2025
Age 0.8 years
Type internet

Technical Details

Classification Payload
Mass 575.00 kg
Dry Mass 530.00 kg
Total Mass 575.00 kg
Length 0.30 m
Diameter 4.10 m
Span 29.00 m
Shape Box + pan
Manufacturer SPXS
Bus Type Starlink V2MO
Phase Status In Orbit
Owner/State SPXS/US

Most Searched